Flag for Malaysia Weather past 2 weeks in Kuching, Malaysia

Now
75 °F

Passing clouds.


Feels Like: 75 °F
Forecast: 75 / 86 °F
Wind: 3 mph from West

Location: Kuching Airport

Current Time: Jan 28, 2015 at 5:44:19 AM

Latest Report: Jan 28, 2015 at 5:00 AM


Visibility: N/A

Pressure: 29.80 "Hg

Humidity: 89%

Dew point: 72 °F

Location of KuchingLocation

Historic Weather in Kuching — Graph

°F

Kuching temperature yesterday

Maximum temperature yesterday: 86 °F (at 2:00 PM)
Minimum temperature yesterday: 73 °F (at 12:00 AM)
Average temperature yesterday: 79 °F

Past Weeks' High & Low Weather Summary

 TemperatureHumidityPressure
High88 °F (Jan 13, 12:30 PM)100% (Jan 14, 4:30 AM)30.07 "Hg (Jan 14, 4:30 AM)
Low72 °F (Jan 21, 10:00 PM)55% (Jan 27, 4:30 PM)29.77 "Hg (Jan 13, 3:00 PM)
Average77 °F88%29.90 "Hg
* Reported Jan 13 4:00 AM — Jan 28 4:30 AM, Kuching, Weather by CustomWeather, © 2014

Note: Actual official high and low records may vary slightly from our data, if they occured in-between our weather recording intervals... More about our weather records

Advertising

Kuching weather history for previous 24 hours

 ConditionsComfort  
Time TempWeatherWind HumidityBarometerVisibility
4:30 AM
Jan 28
75 °FPassing clouds.5 mph89%29.80 "HgN/A
4:00 AM75 °FPassing clouds.5 mph89%29.80 "HgN/A
3:30 AM75 °FPartly cloudy.5 mph89%29.80 "HgN/A
3:00 AM75 °FPartly cloudy.5 mph89%29.80 "HgN/A
2:30 AM75 °FPartly cloudy.5 mph89%29.83 "HgN/A
2:00 AM75 °FPartly cloudy.3 mph89%29.83 "HgN/A
1:30 AM75 °FPartly cloudy.3 mph89%29.86 "HgN/A
1:00 AM75 °FPassing clouds.3 mph89%29.86 "HgN/A
12:30 AM75 °FPassing clouds.1 mph94%29.86 "HgN/A
12:00 AM75 °FPassing clouds.3 mph89%29.86 "HgN/A
11:30 PM
Jan 27
77 °FPassing clouds.3 mph83%29.86 "HgN/A
11:00 PM77 °FPassing clouds.3 mph83%29.89 "HgN/A
10:30 PM77 °FPassing clouds.5 mph89%29.89 "HgN/A
10:00 PM77 °FPartly cloudy.3 mph89%29.86 "HgN/A
9:30 PM77 °FPartly cloudy.3 mph83%29.86 "HgN/A
9:00 PM79 °FPartly cloudy.3 mph79%29.86 "HgN/A
8:30 PM79 °FPartly cloudy.5 mph79%29.86 "HgN/A
8:00 PM81 °FPartly cloudy.5 mph74%29.83 "HgN/A
7:30 PM81 °FPassing clouds.6 mph70%29.83 "HgN/A
7:00 PM81 °FPartly cloudy.5 mph70%29.83 "HgN/A
6:30 PM82 °FBroken clouds.8 mph62%29.83 "HgN/A
6:00 PM82 °FPartly sunny.6 mph66%29.80 "HgN/A
5:30 PM84 °FPartly sunny.6 mph58%29.80 "HgN/A
5:00 PM84 °FBroken clouds.7 mph58%29.80 "HgN/A
4:30 PM86 °FBroken clouds.9 mph55%29.80 "HgN/A
4:00 PM84 °FBroken clouds.9 mph58%29.80 "HgN/A
3:30 PM86 °FBroken clouds.9 mph59%29.80 "HgN/A
3:00 PM86 °FBroken clouds.8 mph66%29.80 "HgN/A
2:30 PM84 °FBroken clouds.5 mph66%29.80 "HgN/A
2:00 PM86 °FBroken clouds.6 mph66%29.83 "HgN/A
1:30 PM84 °FBroken clouds.7 mph70%29.83 "HgN/A
1:00 PM84 °FBroken clouds.8 mph70%29.86 "HgN/A
12:30 PM84 °FPartly sunny.7 mph70%29.86 "HgN/A
12:00 PM84 °FBroken clouds.7 mph70%29.89 "HgN/A
11:30 AM82 °FBroken clouds.6 mph70%29.89 "HgN/A
10:30 AM81 °FBroken clouds.5 mph79%29.92 "HgN/A
10:00 AM81 °FBroken clouds.1 mph79%29.92 "HgN/A
9:30 AM79 °FBroken clouds.1 mph79%29.92 "HgN/A
9:00 AM77 °FBroken clouds.3 mph83%29.92 "HgN/A
8:30 AM77 °FPartly sunny.5 mph83%29.92 "HgN/A
8:00 AM75 °FBroken clouds.5 mph89%29.89 "HgN/A
7:30 AM73 °FBroken clouds.1 mph89%29.89 "HgN/A
7:00 AM73 °FBroken clouds.No wind89%29.89 "HgN/A
6:30 AM73 °FPartly cloudy.5 mph89%29.89 "HgN/A
6:00 AM73 °FPartly cloudy.3 mph89%29.89 "HgN/A
5:30 AM73 °FPartly cloudy.3 mph94%29.89 "HgN/A
5:00 AM73 °FPartly cloudy.1 mph89%29.86 "HgN/A
Weather by CustomWeather, © 2014

See weather overviewHow to use our weather pages